Tracking 19854 objects as of 23-Sep-2019
HD Live streaming from Space Station
objects crossing your sky now

PERSEUS M2

Track PERSEUS M2 now!
10-day predictions
PERSEUS M2 is classified as:


NORAD ID: 40037
Int'l Code: 2014-033AD
Perigee: 605.1 km
Apogee: 627.1 km
Inclination: 97.9 °
Period: 96.9 minutes
Semi major axis: 6987 km
RCS: Unknown
Launch date: June 19, 2014
Source: Commonwealth of Independent States (former USSR) (CIS)
Launch site: Orenburg, Russia (OREN)

Uplink (MHz):
Downlink (MHz): 400.190/400.221
Beacon (MHz):
Mode: 9600bps GFSK
Call sign: CQ
Status:

aabbcc
Your satellite tracking list
Your tracking list is empty




NASA's NSSDC Master Catalog

Two Line Element Set (TLE):
1 40037U 14033AD  19265.88600821  .00000064  00000-0  13433-4 0  9999
2 40037  97.8860 179.2413 0015736 110.7734 249.5169 14.86476675285269
Source of the keplerian elements: AFSPC